User: anonymous   Login
Location: Hysolar-Haus
(48.7436°N, 9.0965°E)
Time: 11:51:20
(UTC+00:00)
Language:

ISS - Orbit

View from above orbital plane
View from above orbital plane
View from above satellite
View from above satellite

Ground track
Ground track

The orbit data is extracted from the following two-line orbital elements,

1 25544U 98067A   21264.64729787  .00001703  00000-0  39814-4 0  9995
2 25544  51.6436 225.7770 0003434  38.4984 133.1519 15.48418266303540
Epoch (UTC): 21 September 2021 15:32:06
Eccentricity: 0.0003434
inclination: 51.6436°
perigee height: 419 km
apogee height: 423 km
right ascension of ascending node: 225.7770°
argument of perigee: 38.4984°
revolutions per day: 15.48418266
mean anomaly at epoch: 133.1519°
orbit number at epoch: 30354

The dashed part of the orbit path shows where the satellite is in the earth's shadow,  

DLR